Location: Unspecified
(0.0000°N, 0.0000°E)
Time: 10:05:59
(UTC+00:00)

Vanguard 2 - Pass Details

Date: 13 October 2022
Orbit: 553 x 2933 km, 32.9° (Epoch: 29 November)

Event Time Altitude Azimuth Distance (km) Brightness Sun altitude
Rises 20:13:15 0° 278° (W) 6,719 13.2 -36.4°
Reaches altitude 10° 20:18:32 10° 270° (W) 5,760 12.7 -37.7°
Maximum altitude 20:33:18 32° 213° (SSW) 3,903 11.2 -41.3°
Enters shadow 20:44:41 12° 157° (SSE) 4,567 11.3 -44.1°
